This demonstration page uses our WeatherBlox Daily Observations layout. Learn more.

Left ArrowRight Arrow

Hourly Observations for October 20, 2022

Temp ( °F °C ) Dew Point ( °F °C ) Humidity (%) Winds ( mph kmh ) Pressure ( in mb ) Visibility ( mi km ) Precip ( " mm )
12:56 am 00:56 Clear 42 5.6 32 0 67 67 WNW 7 11 30.02 1017 10 16 0.00 0.00
1:56 am 01:56 Clear 41 5 32 0 70 70 WNW 7 11 30.01 1016 10 16 0.00 0.00
2:56 am 02:56 Clear 43 6.1 31 -0.6 62 62 WNW 8 13 30.00 1016 10 16 0.00 0.00
3:56 am 03:56 Clear 45 7.2 32 0 60 60 W 6 9 29.98 1015 10 16 0.00 0.00
4:56 am 04:56 Clear 46 7.8 33 0.6 60 60 WNW 8 13 29.97 1015 10 16 0.00 0.00
5:56 am 05:56 Clear 45 7.2 34 1.1 65 65 WNW 10 17 29.97 1015 10 16 0.00 0.00
6:56 am 06:56 Clear 44 6.7 33 0.6 65 65 WNW 10 17 29.98 1015 10 16 0.00 0.00
7:56 am 07:56 Sunny 40 4.4 32 0 73 73 WNW 9 15 29.99 1016 10 16 0.00 0.00
8:56 am 08:56 Sunny 47 8.3 34 1.1 60 60 WNW 8 13 29.99 1016 10 16 0.00 0.00
9:56 am 09:56 Sunny 53 11.7 35 1.7 50 50 WNW 14 22 29.98 1015 10 16 0.00 0.00
10:56 am 10:56 Sunny 61 16.1 36 2.2 39 39 WNW 12 19 29.97 1015 10 16 0.00 0.00
11:56 am 11:56 Sunny 69 20.6 37 2.8 31 31 WNW 9 15 29.96 1014 10 16 0.00 0.00
12:56 pm 12:56 Sunny 70 21.1 38 3.3 31 31 SW 10 17 29.93 1014 10 16 0.00 0.00
1:56 pm 13:56 Sunny 74 23.3 35 1.7 24 24 W 10 17 29.89 1012 10 16 0.00 0.00
2:56 pm 14:56 Sunny 75 23.9 33 0.6 22 22 W 12 19 29.85 1011 10 16 0.00 0.00
3:56 pm 15:56 Sunny 75 23.9 30 -1.1 19 19 W 16 26 29.82 1010 10 16 0.00 0.00
4:56 pm 16:56 Sunny 76 24.4 31 -0.6 19 19 W 9 15 29.79 1009 10 16 0.00 0.00
5:56 pm 17:56 Sunny 73 22.8 35 1.7 25 25 SSW 3 6 29.77 1008 10 16 0.00 0.00
6:56 pm 18:56 Clear 65 18.3 32 0 29 29 S 8 13 29.77 1008 10 16 0.00 0.00
7:56 pm 19:56 Clear 59 15 32 0 36 36 S 8 13 29.78 1008 9 14 0.00 0.00
8:56 pm 20:56 Clear 56 13.3 32 0 40 40 SSW 9 15 29.76 1008 10 16 0.00 0.00
9:56 pm 21:56 Clear 56 13.3 31 -0.6 38 38 SSW 10 17 29.75 1007 10 16 0.00 0.00
10:56 pm 22:56 Clear 56 13.3 31 -0.6 38 38 SSW 12 19 29.73 1007 10 16 0.00 0.00
11:56 pm 23:56 Clear 54 12.2 32 0 43 43 SW 10 17 29.72 1006 10 16 0.00 0.00

Powered by AerisWeather